036  
NZUS01 KABQ 222110  
RWRABQ  
NEW MEXICO REGIONAL WEATHER ROUNDUP  
NATIONAL WEATHER SERVICE ALBUQUERQUE NM  
300 PM MDT MON JUL 22 2019  
 
-----NORTHERN NEW MEXICO AND NEARBY AREAS-----  
 
 
CITY SKY/WX TMP DP RH WIND PRES REMARKS
 
ALBUQUERQUE PTSUNNY 88 52 29 SE15G22 30.29F  
BELEN FAIR 87 46 24 SE6 30.28F  
SOCORRO FAIR 90 46 22 CALM 30.25F  
 
CITY SKY/WX TMP DP RH WIND PRES REMARKS
 
SANTA FE CLOUDY 81 50 33 SE17 30.38S  
LOS ALAMOS N/A 80 44 27 S14G20 30.42F  
ANGEL FIRE LGT RAIN 69 46 43 SE10G18 30.53S  
FARMINGTON MOSUNNY 94 43 17 VRB7 30.20F  
GRANTS MOSUNNY 88 44 21 SE16G25 30.35F  
GALLUP PTSUNNY 88 41 19 SE9 30.28F THUNDER  
FLAGSTAFF MOSUNNY 85 38 18 VRB3 30.35F  
DURANGO MOSUNNY 88 43 20 MISG 30.32F  
 
CITY SKY/WX TMP DP RH WIND PRES REMARKS
 
ALAMOSA PTSUNNY 81 39 22 SW14 30.42F  
DENVER MOSUNNY 85 53 33 SE12G18 30.31S  
CLAYTON PTSUNNY 79 57 46 E15 30.36F  
RATON MOSUNNY 83 50 31 SE7 30.38F  
LAS VEGAS CLOUDY 71 54 54 S14G23 30.46S  
CLINES CORNERS PTSUNNY 73 53 49 SE18G24 30.47F  
SANTA ROSA FAIR 84 56 38 E15 30.35F  
TUCUMCARI PTSUNNY 81 61 50 SE9 30.29F  
CLOVIS (AFB) CLOUDY 74 61 63 NE8 30.33F  
CLOVIS PTSUNNY 79 58 48 E13 30.32F  
AMARILLO SUNNY 84 60 44 NE17G23 30.28S  
 
-----SOUTHERN NEW MEXICO AND NEARBY AREAS-----  
 
 
CITY SKY/WX TMP DP RH WIND PRES REMARKS
 
T OR C MOSUNNY 93 50 23 E7G21 30.20F  
DEMING MOSUNNY 91 52 26 SE9 30.18F  
TUCSON SUNNY 98 59 27 W13G20 30.03F HX 98  
EL PASO PTSUNNY 86 57 37 E13 30.19F  
LAS CRUCES PTSUNNY 89 53 28 SE17G25 30.23F  
 
CITY SKY/WX TMP DP RH WIND PRES REMARKS
 
ALAMOGORDO CLOUDY 82 59 44 SE29G38 30.21S THUNDER  
RUIDOSO N/A 72 55 56 SE13G18 30.47F  
ROSWELL CLOUDY 83 63 50 E10 30.25F  
CARLSBAD HVY RAIN 71 65 81 N20G26 30.18S  
HOBBS PTSUNNY 88 61 40 N20G25 30.20F  
 
CLICK HERE TO GO TO PREVIOUS BULLETINS.

The Nexlab NM Page Main Text Page